Location: Unspecified
(43.4680°N, 87.1740°E)
Time: 21:24:48
(UTC+00:00)

Meteor 2-8 Rocket - Pass Details

Date: 17 April 2021
Orbit: 936 x 959 km, 82.5° (Epoch: 12 May)

Event Time Altitude Azimuth Distance (km) Brightness Sun altitude
Exits shadow 16:13:56 82° 251° (WSW) 969 4.3 -29.6°
Maximum altitude 16:14:05 83° 278° (W) 967 4.4 -29.6°
Drops below altitude 10° 16:20:15 10° 7° (N) 2,686 7.4 -30.2°
Sets 16:22:45 0° 8° (N) 3,632 8.2 -30.5°
